www.pogodaiklimat.ru

Погода и климат >> Архив погоды >> Норвегия >> Tafjord


ПОГОДА в Tafjord

  • Прогноз погоды в Tafjord
  • Монитор погоды в Tafjord
  • Климат города

АРХИВ ПОГОДЫ в Tafjord

Время (UTC), дата Ветер
(напр.,м/с)
 
Видим.   Явления Облачность Т
(С)
Тd
(С)
f
(%)
Тe
(С)
Тes
(С)
Комфортность P
(гПа)
Po
(гПа)
Тmin
(С)
Tmax
(С)
R
(мм)
R24
(мм)
S
(см)
19 10.07 ЮВ 1
{2}
н/о н/о +18.0 +12.2 69 +19 +19 1023.1 1021.0
20 10.07 Ю 1
{2}
н/о н/о +16.8 +12.2 74 +18 +18 1023.5 1021.4
21 10.07 ЮВ 1
{1}
н/о н/о +15.4 +11.8 79 +16 +16 1023.8 1021.7
22 10.07 Ю 1
{2}
н/о н/о +14.3 +11.5 83 +15 +15 1023.9 1021.8
23 10.07 штиль 0
{1}
н/о н/о +13.7 +11.4 86 +13 +13 1023.7 1021.6
00 11.07 Ю 1
{2}
н/о н/о +12.8 +11.2 90 +13 +13 1023.6 1021.5
01 11.07 Ю 1
{2}
н/о н/о +12.9 +11.5 91 +13 +13 1023.4 1021.3
02 11.07 штиль 0
{1}
н/о н/о +13.3 +11.9 91 +13 +13 1023.2 1021.1
03 11.07 штиль 0
{1}
н/о н/о +13.2 +11.6 90 +13 +13 1022.9 1020.8
04 11.07 штиль 0 н/о н/о +13.5 +12.1 91 +13 +13 1022.7 1020.6
05 11.07 штиль 0
{1}
н/о н/о +14.7 +12.6 87 +14 +14 1022.4 1020.3
06 11.07 штиль 0
{2}
н/о н/о +15.1 +12.4 84 +15 +15 1022.2 1020.1 +12.6 +19.2
07 11.07 СЗ 1
{1}
н/о н/о +15.5 +12.1 80 +16 +16 1021.8 1019.7
08 11.07 С 2
{2}
н/о н/о +16.2 +12.0 76 +16 +16 1021.3 1019.2
09 11.07 С 1
{3}
н/о н/о +19.5 +12.8 65 +22 +22 комфорт 1020.9 1018.8
10 11.07 СЗ 1
{3}
н/о н/о +19.8 +12.1 61 +22 +22 комфорт 1020.7 1018.6
11 11.07 С 1
{2}
н/о н/о +18.6 +12.1 66 +20 +20 1020.3 1018.2
12 11.07 ЮВ 1
{3}
н/о н/о +19.5 +13.0 66 +22 +22 комфорт 1020.2 1018.1
13 11.07 ЮЗ 2
{5}
н/о н/о +24.2 +12.5 48 +26 +26 жарко 1019.7 1017.7
14 11.07 Ю 3
{8}
н/о н/о +23.9 +10.9 44 +25 +25 комфорт 1019.4 1017.4
15 11.07 С 3
{6}
н/о н/о +24.0 +11.7 46 +26 +26 жарко 1019.0 1017.0
16 11.07 СВ 2
{5}
н/о н/о +22.0 +12.6 55 +25 +25 комфорт 1018.9 1016.9 0.1
17 11.07 С 3
{7}
н/о н/о +21.1 +13.3 61 +23 +23 комфорт 1019.5 1017.4
18 11.07 СВ 1
{8}
н/о н/о +19.7 +14.5 72 +23 +23 комфорт 1020.1 1018.0 +15.1 +26.1 0.1
19 11.07 н/о
20 11.07 С 1
{3}
н/о н/о +18.1 +13.8 76 +19 +19 1019.5 1017.4
21 11.07 Ю 1
{2}
н/о н/о +15.8 +13.5 86 +16 +16 1019.6 1017.5
22 11.07 ЮЗ 1
{2}
н/о н/о +14.3 +12.7 90 +15 +15 1019.5 1017.4
23 11.07 штиль 0
{2}
н/о н/о +13.8 +12.7 93 +13 +13 1019.9 1017.8
00 12.07 штиль 0
{3}
н/о н/о +14.1 +13.2 94 +14 +14 1019.8 1017.7
01 12.07 Ю 1
{1}
н/о н/о +14.9 +13.9 94 +15 +15 1019.9 1017.8
02 12.07 Ю 1
{1}
н/о н/о +15.2 +13.7 91 +16 +16 1019.9 1017.8
03 12.07 штиль 0
{1}
н/о н/о +14.9 +12.9 88 +15 +15 1019.9 1017.8
04 12.07 С 1 н/о н/о +14.8 +13.0 89 +15 +15 1019.7 1017.6
05 12.07 С 1
{2}
н/о н/о +14.4 +13.1 92 +15 +15 1019.7 1017.6
06 12.07 С 1
{2}
н/о н/о +14.4 +13.1 92 +15 +15 1019.7 1017.6 +13.6 +19.7
07 12.07 С 2
{3}
н/о н/о +14.7 +13.1 90 +14 +14 1019.7 1017.6
08 12.07 С 1
{3}
н/о н/о +15.0 +12.9 87 +15 +15 1019.5 1017.4
09 12.07 С 2
{3}
н/о н/о +15.2 +12.7 85 +15 +15 1019.4 1017.3
10 12.07 СЗ 1
{4}
н/о н/о +15.5 +12.6 83 +16 +16 1019.5 1017.4
11 12.07 С 1
{3}
н/о н/о +16.0 +12.4 79 +17 +17 1019.3 1017.2
12 12.07 С 2
{4}
н/о н/о +16.2 +12.0 76 +16 +16 1019.3 1017.2
13 12.07 СЗ 2
{3}
н/о н/о +16.5 +12.1 75 +17 +17 1019.1 1017.0
14 12.07 СЗ 2
{3}
н/о н/о +16.6 +12.0 74 +17 +17 1018.9 1016.8
15 12.07 С 1
{3}
н/о н/о +16.8 +11.9 73 +18 +18 1018.9 1016.8
16 12.07 С 1
{2}
н/о н/о +16.7 +12.1 74 +18 +18 1018.7 1016.6
17 12.07 С 1
{2}
н/о н/о +16.6 +12.0 74 +17 +17 1018.5 1016.4
18 12.07 СВ 1
{3}
н/о н/о +16.6 +12.2 75 +17 +17 1018.3 1016.2 +14.4 +17.0
19 12.07 СЗ 1
{3}
н/о н/о +16.2 +12.4 78 +17 +17 1018.2 1016.1
20 12.07 С 2
{3}
н/о н/о +15.9 +11.9 77 +16 +16 1018.5 1016.4
21 12.07 СВ 1
{3}
н/о н/о +15.6 +12.2 80 +16 +16 1018.5 1016.4
22 12.07 С 1
{3}
н/о н/о +15.0 +12.3 84 +16 +16 1018.6 1016.5
23 12.07 С 2
{3}
н/о н/о +14.3 +12.2 87 +14 +14 1018.6 1016.5
00 13.07 З 1
{3}
н/о н/о +13.7 +12.4 92 +14 +14 1018.6 1016.5 0.1
01 13.07 СЗ 1
{1}
н/о н/о +13.7 +12.6 93 +14 +14 1018.5 1016.4 0.1
02 13.07 СЗ 1
{1}
н/о н/о +13.5 +12.6 94 +14 +14 1018.3 1016.2 0.1
03 13.07 штиль 0
{2}
н/о н/о +13.4 +12.5 94 +13 +13 1018.3 1016.2 0.1
04 13.07 СЗ 1
{1}
н/о н/о +13.4 +12.6 95 +13 +13 1018.3 1016.2 0.1
05 13.07 СЗ 1
{1}
н/о н/о +13.4 +12.6 95 +13 +13 1018.2 1016.1 0.1
06 13.07 СЗ 1
{2}
н/о н/о +13.6 +12.8 95 +14 +14 1018.3 1016.2 +13.3 +16.7
07 13.07 С 1
{2}
н/о н/о +13.7 +12.4 92 +14 +14 1018.4 1016.3
08 13.07 СЗ 2
{2}
н/о н/о +14.2 +12.2 88 +14 +14 1018.3 1016.2
09 13.07 СЗ 2
{3}
н/о н/о +14.7 +12.0 84 +14 +14 1018.1 1016.0
10 13.07 С 1
{2}
н/о н/о +15.7 +12.3 80 +16 +16 1017.9 1015.8
11 13.07 С 1
{2}
н/о н/о +16.0 +11.6 75 +17 +17 1017.8 1015.7
12 13.07 СЗ 2
{3}
н/о н/о +16.7 +11.8 73 +17 +17 1017.8 1015.7
13 13.07 СЗ 2
{3}
н/о н/о +17.0 +11.5 70 +17 +17 1017.7 1015.6
14 13.07 С 2
{3}
н/о н/о +17.2 +11.7 70 +18 +18 1017.5 1015.4
15 13.07 СЗ 2
{4}
н/о н/о +17.6 +11.9 69 +18 +18 1017.4 1015.3
16 13.07 С 2
{3}
н/о н/о +17.3 +12.0 71 +18 +18 1017.2 1015.1
17 13.07 С 2
{5}
н/о н/о +16.7 +11.6 72 +17 +17 1017.1 1015.0
18 13.07 С 2
{5}
н/о н/о +16.1 +11.7 75 +16 +16 1017.1 1015.0 +13.5 +17.8
19 13.07 С 2
{4}
н/о н/о +15.7 +11.5 76 +16 +16 1017.5 1015.4
20 13.07 С 2
{4}
н/о н/о +15.3 +11.3 77 +15 +15 1017.6 1015.5
21 13.07 С 2
{4}
н/о н/о +14.8 +11.2 79 +15 +15 1017.7 1015.6
22 13.07 С 2
{3}
н/о н/о +14.4 +11.2 81 +14 +14 1017.8 1015.7
23 13.07 СЗ 1
{3}
н/о н/о +13.9 +11.4 85 +14 +14 1017.8 1015.7
00 14.07 н/о +13.7 +11.2 85 +14 +14 1017.7 1015.6
01 14.07 С 2
{3}
н/о н/о +13.4 +11.5 88 +13 +13 1017.5 1015.4
02 14.07 С 1
{3}
н/о н/о +13.2 +11.4 89 +13 +13 1017.4 1015.3
03 14.07 С 1
{3}
н/о н/о +13.1 +11.3 89 +13 +13 1017.3 1015.2
04 14.07 штиль 0 н/о н/о +13.0 +11.2 89 +12 +12 1017.2 1015.1
05 14.07 СВ 1
{1}
н/о н/о +13.0 +11.2 89 +13 +13 1016.9 1014.8
06 14.07 СВ 1
{3}
н/о н/о +13.1 +11.2 88 +13 +13 1017.0 1014.9 +13.0 +16.2
07 14.07 СЗ 1
{2}
н/о н/о +13.4 +11.3 87 +14 +14 1016.7 1014.6
08 14.07 С 2
{3}
н/о н/о +13.9 +11.1 83 +13 +13 1016.8 1014.7
09 14.07 СЗ 2
{3}
н/о н/о +14.8 +11.0 78 +15 +15 1016.6 1014.5
10 14.07 С 2
{3}
н/о н/о +15.9 +10.9 72 +16 +16 1016.4 1014.3
11 14.07 СЗ 1
{3}
н/о н/о +17.2 +10.8 66 +18 +18 1015.8 1013.7
12 14.07 С 2
{3}
н/о н/о +18.5 +10.6 60 +19 +19 1015.0 1012.9
13 14.07 СЗ 3
{5}
н/о н/о +18.9 +11.2 61 +20 +20 1014.3 1012.2
14 14.07 СЗ 2
{5}
н/о н/о +19.2 +11.3 60 +21 +21 комфорт 1014.2 1012.1
15 14.07
{5}
н/о н/о +18.5 +11.3 63 1014.1 1012.0
16 14.07 С 2
{3}
н/о н/о +19.1 +11.7 62 +21 +21 комфорт 1013.8 1011.7
17 14.07 С 1
{4}
н/о н/о +18.7 +11.8 64 +20 +20 1013.8 1011.7
18 14.07 СЗ 1
{5}
н/о н/о +17.9 +12.1 69 +19 +19 1014.0 1011.9 +13.1 +19.8
19 14.07 штиль 0
{2}
н/о н/о +17.4 +12.1 71 +17 +17 1014.0 1011.9
20 14.07 Ю 1
{2}
н/о н/о +16.6 +12.4 76 +17 +17 1014.1 1012.0
21 14.07 штиль 0
{1}
н/о н/о +16.2 +12.6 79 +16 +16 1013.6 1011.5
22 14.07 Ю 1
{1}
н/о н/о +15.5 +12.5 82 +16 +16 1014.0 1011.9
23 14.07 Ю 1
{1}
н/о н/о +14.5 +12.0 85 +15 +15 1014.0 1011.9
00 15.07 С 1
{2}
н/о н/о +14.2 +12.1 87 +15 +15 1014.3 1012.2
01 15.07 Ю 1
{2}
н/о н/о +14.4 +12.3 87 +15 +15 1014.1 1012.0
02 15.07 штиль 0
{2}
н/о н/о +14.8 +12.1 84 +15 +15 1014.2 1012.1
03 15.07 СЗ 1
{2}
н/о н/о +14.9 +12.0 83 +15 +15 1014.2 1012.1
04 15.07 СЗ 1 н/о н/о +15.1 +12.2 83 +16 +16 1014.0 1011.9
05 15.07 штиль 0
{2}
н/о н/о +15.8 +12.7 82 +16 +16 1014.0 1011.9
06 15.07 С 1
{2}
н/о н/о +16.3 +12.3 77 +17 +17 1013.9 1011.8 +13.9 +18.0
07 15.07 С 1
{2}
н/о н/о +17.1 +12.6 75 +18 +18 1014.0 1011.9
08 15.07 С 1
{2}
н/о н/о +17.9 +12.1 69 +19 +19 1013.9 1011.8
09 15.07 С 1
{2}
н/о н/о +19.1 +12.1 64 +21 +21 комфорт 1013.8 1011.7
10 15.07 С 1
{3}
н/о н/о +20.8 +11.7 56 +24 +24 комфорт 1014.0 1012.0
11 15.07 СЗ 2
{4}
н/о н/о +20.4 +11.1 55 +23 +23 комфорт 1014.1 1012.1
12 15.07 СЗ 2
{5}
н/о н/о +20.8 +11.7 56 +24 +24 комфорт 1014.4 1012.4
13 15.07 С 2
{4}
н/о н/о +21.4 +11.7 54 +23 +23 комфорт 1014.3 1012.3
14 15.07 С 2
{4}
н/о н/о +21.9 +11.6 52 +24 +24 комфорт 1014.2 1012.2 0.1
15 15.07 С 1
{4}
н/о н/о +21.8 +12.1 54 +24 +24 комфорт 1014.2 1012.2
16 15.07 С 1
{3}
н/о н/о +22.1 +11.8 52 +24 +24 комфорт 1014.3 1012.3
17 15.07 СВ 1
{2}
н/о н/о +21.6 +12.2 55 +24 +24 комфорт 1014.4 1012.4
18 15.07 штиль 0
{4}
н/о н/о +21.8 +12.4 55 +24 +24 комфорт 1014.7 1012.7 +16.1 +22.9
19 15.07
{2}
н/о н/о +20.7 +12.9 61 1014.7 1012.7
20 15.07 Ю 1
{2}
н/о н/о +18.6 +13.5 72 +20 +20 1014.9 1012.8
21 15.07 Ю 1
{1}
н/о н/о +16.6 +13.3 81 +17 +17 1014.9 1012.8
22 15.07 Ю 1
{2}
н/о н/о +15.4 +12.9 85 +16 +16 1015.1 1013.0
23 15.07 штиль 0
{2}
н/о н/о +14.7 +12.6 87 +14 +14 1015.1 1013.0
00 16.07 штиль 0
{2}
н/о н/о +13.8 +12.2 90 +13 +13 1015.1 1013.0
01 16.07 Ю 1
{2}
н/о н/о +13.4 +12.0 91 +14 +14 1014.9 1012.8
02 16.07 ЮЗ 1
{2}
н/о н/о +13.3 +12.0 92 +13 +13 1014.8 1012.7
03 16.07 ЮВ 1
{1}
н/о н/о +13.6 +12.5 93 +14 +14 1014.7 1012.6
04 16.07 штиль 0 н/о н/о +14.6 +13.0 90 +14 +14 1014.7 1012.6
05 16.07 штиль 0
{1}
н/о н/о +14.9 +12.8 87 +15 +15 1014.5 1012.4
06 16.07 штиль 0
{2}
н/о н/о +14.2 +12.8 91 +14 +14 1014.4 1012.3 +13.1 +22.0
07 16.07 штиль 0
{1}
н/о н/о +14.2 +12.9 92 +14 +14 1014.2 1012.1
08 16.07 С 1
{2}
н/о н/о +14.7 +13.4 92 +15 +15 1014.0 1011.9
09 16.07 СЗ 1
{2}
н/о н/о +18.1 +13.2 73 +19 +19 1014.1 1012.0
10 16.07 СЗ 2
{3}
н/о н/о +21.0 +12.4 58 +24 +24 комфорт 1013.5 1011.5
11 16.07 н/о
12 16.07 СВ 3
{4}
н/о н/о +23.6 +13.2 52 +26 +26 жарко 1012.9 1010.9
13 16.07
{5}
н/о н/о +24.8 +13.4 49 1012.8 1010.8
14 16.07 С 2
{4}
н/о н/о +25.6 +14.1 49 +28 +28 жарко 1012.6 1010.6
15 16.07 С 2 н/о н/о +26.2 +13.7 46 +28 +28 жарко 1012.4 1010.4
16 16.07 СЗ 2
{4}
н/о н/о +26.8 +13.9 45 +29 +29 жарко 1012.3 1010.3
17 16.07 С 4
{7}
н/о н/о +25.5 +13.4 47 +28 +28 жарко 1012.5 1010.5
18 16.07 С 3
{7}
н/о н/о +24.0 +13.8 53 +26 +26 жарко 1013.0 1011.0 +14.1 +27.3
19 16.07 С 2
{7}
н/о н/о +22.6 +13.9 58 +26 +26 жарко 1013.8 1011.8
20 16.07 штиль 0
{4}
н/о н/о +19.6 +14.0 70 +21 +21 комфорт 1014.7 1012.6
21 16.07 Ю 1 н/о н/о +17.9 +13.6 76 +19 +19 1015.3 1013.2
22 16.07 Ю 1 н/о н/о +17.0 +13.5 80 +18 +18 1015.7 1013.6
23 16.07 штиль 0 н/о н/о +16.4 +13.5 83 +16 +16 1015.9 1013.8
00 17.07 Ю 1
{7}
н/о н/о +15.6 +13.3 86 +16 +16 1015.9 1013.8
01 17.07 Ю 1
{1}
н/о н/о +15.1 +13.1 88 +16 +16 1015.6 1013.5
02 17.07 Ю 1
{2}
н/о н/о +14.8 +13.0 89 +15 +15 1015.7 1013.6
03 17.07 Ю 1
{1}
н/о н/о +14.1 +12.8 92 +14 +14 1015.5 1013.4
04 17.07 Ю 1
{2}
н/о н/о +14.1 +12.8 92 +14 +14 1015.2 1013.1
05 17.07 Ю 1
{2}
н/о н/о +14.4 +13.1 92 +15 +15 1015.0 1012.9
06 17.07 В 1
{2}
н/о н/о +15.4 +13.8 90 +16 +16 1014.7 1012.6 +13.9 +24.5
07 17.07 В 1
{1}
н/о н/о +15.4 +13.8 90 +16 +16 1014.6 1012.5
08 17.07 штиль 0
{1}
н/о н/о +16.6 +14.4 87 +16 +16 1014.3 1012.2
09 17.07 В 1
{2}
н/о н/о +19.4 +14.4 73 +22 +22 комфорт 1013.9 1011.8
10 17.07 СЗ 1
{2}
н/о н/о +19.8 +13.7 68 +23 +23 комфорт 1013.9 1011.9
11 17.07 СВ 1
{3}
н/о н/о +19.8 +13.7 68 +23 +23 комфорт 1013.9 1011.9
12 17.07 ЮЗ 1
{3}
н/о н/о +23.7 +14.7 57 +26 +26 жарко 1013.3 1011.3
13 17.07 СВ 1
{6}
н/о н/о +21.5 +13.9 62 +24 +24 комфорт 1013.4 1011.4
14 17.07 Ю 3
{19}
н/о н/о +20.1 +14.0 68 +23 +23 комфорт 1016.3 1014.2 0.6
15 17.07 Ю 3
{6}
н/о н/о +19.8 +16.1 79 +22 +22 комфорт 1016.3 1014.2 0.1
16 17.07 ЮВ 1
{4}
н/о н/о +19.6 +16.4 82 +23 +23 комфорт 1015.3 1013.2 0.1
17 17.07 СВ 1
{2}
н/о н/о +19.5 +16.4 82 +23 +23 комфорт 1014.5 1012.4
18 17.07 СВ 1
{19}
н/о н/о +18.9 +14.4 75 +21 +21 комфорт 1014.1 1012.0 +15.3 +23.8

 

Местоположение метеостанции Tafjord (Норвегия): широта 62.23 долгота 7.42 высота над уровнем моря 11 м.

В архиве по умолчанию представлена погода в Tafjord за последнюю неделю. Архивные данные за месяц целиком и за предыдущие месяцы, начиная с января 2011 года, Вы можете получить, выбрав интересующий диапазон дат из раскрывающегося списка и нажав кнопку "Ввод!".


*Определитесь, кто Вы:
робот инопланетянин человек

Внимание! Время в таблицах - всемирное. Для получения местного времени необходимо прибавить поправку, которая в Tafjord равна 1 ч.

Смотрите также архив погоды в соседних городах и на ближайших метеорологических станциях:

Погода в Grotli III (Норвегия) (26 км)
Погода в Mannen (Норвегия) (31 км)
Погода в Marstein (Норвегия) (33 км)
Погода в Bjorli (Норвегия) (41 км)
Погода в Lebergsfjellet (Норвегия) (43 км)
Погода в Brata (Норвегия) (44 км)
Погода в Stryn-Kroken (Норвегия) (57 км)
Погода в Rekdal (Норвегия) (58 км)
Погода в Molde Lufthavn (Норвегия) (58 км)
Погода в Alesund IV (Норвегия) (68 км)

Пояснения к столбцам:

Ветер - указаны скорость ветра в м/с - средняя за 10 мин, порывы в срок и между сроками (в фигурных скобках) и направление, откуда дует ветер: С - северный, СВ - северо-восточный, В - восточный, ЮВ - юго-восточный, Ю - южный, ЮЗ - юго-западный, З - западный, СЗ - северо-западный.
Видимость - горизонтальная дальность видимости в метрах или километрах. При видимости от 1 до 10 км при отсутствии осадков обычно наблюдается дымка, при ухудшении видимости до 1 км и менее - туман. В сухую погоду видимость может ухудшаться дымом, пылью или мглою.
Явления - указаны атмосферные явления, наблюдавшиеся в срок или в последний час перед сроком; фигурными скобками обозначены явления, наблюдавшиеся между сроками (за 1-3 часа до срока); квадратными скобками обозначены град или гололедные отложения с указанием их диаметра в мм.
Облачность - указаны через наклонную черту общая и нижняя облачность в баллах и высота нижней границы облаков в метрах; квадратными скобками обозначены формы облаков: Ci - перистые, Cs - перисто-слоистые, Cc - перисто-кучевые, Ac - высококучевые, As - высокослоистые, Sc - слоисто-кучевые, Ns - слоисто-дождевые, Cu - кучевые, Cb - кучево-дождевые. Подробнее классификацию облаков см. в Атласе облаков (PDF).
T - Температура воздуха - температура, измеренная на высоте 2 м над землей.
Td - Температура точки росы - температура, при понижении до которой содержащийся в воздухе водяной пар достигнет насыщения.
f - Относительная влажность воздуха - влажноcть воздуха, измеренная на высоте 2 м над землей.
Te - Эффективная температура - температура, которую ощущает одетый по сезону человек в тени. Характеристика душности погоды. При расчете учитывается влияние влажности воздуха и скорости ветра на теплоощущения человека.
Tes - Эффективная температура на солнце - температура, которую ощущает человек, с поправкой на солнечный нагрев. Характеристика знойности погоды. Зависит от высоты солнца над горизонтом, облачности и скорости ветра. Ночью, в пасмурную погоду, а также при ветре 12 м/с и более поправка равна нулю.
P - Атмосферное давление - приведенное к уровню моря атмосферное давление.
Po - Атмосферное давление - измеренное на уровне метеостанции атмосферное давление.
Tmin - Минимальная температура - минимум температуры воздуха на высоте 2 м над землей.
Tmax - Максимальная температура - максимум температуры воздуха на высоте 2 м над землей.
R - Количество осадков - Количество выпавших осадков за период времени, мм. При наведении курсора мыши на число - период времени, за который выпало указанное количество осадков.
R24 - Количество осадков - Количество выпавших осадков за 24 часа, мм.
S - Снежный покров - Высота снежного покрова, см. При наведении курсора мыши на число - состояние снежного покрова и степень покрытия местности в баллах.